[[{"header":{"parameterUnit":"m.s-1","parameterCategory":1,"la1":30.2991,"la2":30.254,"lo1":-89.0895,"lo2":-89.0444,"dy":0.0017,"dx":0.0017,"nx":28,"ny":28,"refTime":"2023-08-10T21:00:00:Z","depth":0,"parameterNumber":2,"parameterNumberName":"U-component_of_WINDS"},"data":[0,0,0,0,0,0,0,0,0,0,0,0,0,0,0,0,0,0,0,0,0,0,0,0,0,0,0,0,0,0,0,0,0,0,0,0,0,0,0,0,0,0,0,0,0,0,0,0,0,0,0,0,0,0,0,0,0,0,2.551,2.551,0,2.5504,2.5504,2.5504,2.5493,2.5493,2.5493,2.5492,2.5489,2.5489,2.5489,0,0,0,0,0,0,0,0,0,0,0,0,0,2.5514,2.5514,2.551,2.551,2.551,2.5504,2.5504,2.5504,2.5493,2.5493,2.5492,2.5492,2.5488,2.5489,2.5489,0,0,0,0,0,0,0,0,0,0,0,0,0,2.5511,2.5514,2.551,2.5504,2.5503,2.5504,2.5504,2.5504,2.5493,2.5493,2.5492,2.5492,2.5488,2.5489,2.5489,2.5497,0,0,2.5489,2.5489,0,0,0,0,0,0,0,0,2.5511,2.5511,2.5505,2.5504,2.5503,2.5499,2.5504,2.5502,2.5493,2.5497,2.5492,2.5492,2.5492,2.5492,2.5492,2.5496,2.5496,2.5489,2.5489,2.5489,2.549,0,0,0,0,0,0,0,2.5511,2.5511,2.5508,2.5505,2.5504,2.5502,2.5501,2.5504,2.5497,2.5497,2.5496,2.5495,2.5492,2.5492,2.5492,2.5496,2.5489,2.5489,2.549,2.549,2.5509,2.5509,0,0,0,0,0,0,2.5512,2.5511,2.5508,2.5508,2.5506,2.5502,2.5501,2.5501,2.5497,2.5496,2.5495,2.5495,2.5492,2.5492,2.5492,2.5501,2.5489,2.549,2.549,2.5508,2.5509,2.5509,0,0,0,0,0,0,2.5512,2.5512,2.5508,2.5509,2.5509,2.5502,2.5502,2.5501,2.5501,2.5496,2.5495,2.5496,2.5491,2.5491,2.5496,2.5501,2.549,2.549,2.5508,2.5508,2.5509,2.552,0,0,0,0,0,0,2.5512,2.5512,2.5514,2.5509,2.5509,2.5511,2.5502,2.5501,2.5501,2.55,2.5496,2.5495,2.5491,2.5496,2.5496,2.5501,2.549,2.5507,2.5508,2.5509,2.5519,2.5521,2.5523,0,0,0,0,0,2.5512,2.5517,2.5514,2.5514,2.5511,2.5512,2.5511,2.5506,2.5501,2.5504,2.5501,2.5496,2.5501,2.5496,2.5496,2.5502,2.5507,2.5508,2.5509,2.5519,2.5521,2.5523,0,0,0,0,0,0,2.5523,2.5517,2.5513,2.5516,2.5515,2.551,2.5513,2.5508,2.5508,2.5507,2.5501,2.55,2.5506,2.5504,2.5499,2.551,2.5503,2.5504,2.551,2.5512,2.5514,2.5514,2.549,0,0,0,0,0,2.5526,2.5526,2.5521,2.5525,2.5524,2.5519,2.5519,2.5515,2.5513,2.5512,2.551,2.5509,2.5511,2.5511,2.5512,2.552,2.5519,2.5524,2.5525,2.5527,2.5527,2.5532,2.5534,2.5512,2.5512,2.5512,0,0,2.5532,2.5528,2.5529,2.5527,2.5525,2.5526,2.5518,2.552,2.5521,2.5513,2.5516,2.5515,2.5514,2.552,2.5522,2.5519,2.5534,2.5528,2.5529,2.5529,2.5533,2.5535,2.5537,2.5513,2.5513,2.5513,0,0,2.5542,2.554,2.5543,2.5541,2.5539,2.5535,2.5536,2.5533,2.5531,2.5535,2.5529,2.5531,2.5534,2.5533,2.5534,2.5547,2.5542,2.5547,2.5556,2.5561,2.5562,2.5564,2.5569,2.5571,2.5548,2.5548,2.5548,0,2.555,2.5551,2.5545,2.5547,2.5547,2.554,2.5544,2.5543,2.5541,2.5542,2.5538,2.5542,2.554,2.5547,2.555,2.555,2.5552,2.5547,2.5562,2.5564,2.5565,2.557,2.5572,2.5549,2.5549,2.5549,2.5549,0,2.5561,2.5562,2.5565,2.5563,2.5563,2.5567,2.5562,2.5564,2.556,2.5558,2.5563,2.5561,2.5562,2.5564,2.556,2.557,2.5568,2.5563,2.5556,2.5568,2.5572,2.5574,2.555,2.555,2.555,2.5549,0,0,2.5577,2.5573,2.5574,2.5573,2.5571,2.5572,2.5576,2.5577,2.5578,2.5578,2.5582,2.5585,2.5581,2.5581,2.5578,2.5582,2.5594,2.5577,2.5577,2.5581,2.5605,2.5608,2.561,2.5591,2.5591,2.5592,2.5605,0,2.5587,2.5592,2.5587,2.5594,2.5595,2.5589,2.5593,2.5592,2.5591,2.5593,2.5592,2.5594,2.5588,2.5589,2.5593,2.5591,2.5598,2.559,2.5595,2.5595,2.5595,2.5613,2.5616,2.5628,2.5607,2.5607,2.5608,0,2.5599,2.5599,2.5605,2.5604,2.5604,2.5607,2.5608,2.561,2.561,2.5609,2.561,2.5607,2.5612,2.5605,2.5612,2.5607,2.5609,2.5609,2.5609,2.5609,2.5601,2.5613,2.5632,2.5634,2.561,2.561,2.561,0,2.561,2.5612,2.5617,2.5616,2.5615,2.5617,2.5617,2.5616,2.5618,2.5619,2.562,2.5622,2.5624,2.5626,2.5624,2.5619,2.5632,2.5625,2.5631,2.5631,2.5633,2.5633,2.5653,2.5635,2.5635,2.5635,2.5635,0,2.5622,2.5626,2.5622,2.5624,2.5629,2.5625,2.5631,2.563,2.563,2.5633,2.5629,2.5632,2.5629,2.5632,2.5631,2.5637,2.5638,2.5638,2.5637,2.5638,2.5638,2.5638,2.5637,2.5636,2.5636,2.5635,2.5635,0,2.5635,2.5632,2.5636,2.5635,2.5635,2.5638,2.5637,2.564,2.5639,2.5643,2.5644,2.5642,2.5646,2.5645,2.5649,2.5648,2.5656,2.5655,2.5656,2.5655,2.5662,2.5661,2.5683,2.5686,2.5666,2.5666,2.5667,0,2.5642,2.5645,2.5644,2.5646,2.5646,2.5648,2.565,2.5647,2.5648,2.565,2.5653,2.5656,2.5659,2.5666,2.5666,2.5669,2.5668,2.5675,2.5668,2.5669,2.5668,2.5667,2.5668,2.5676,2.5676,2.5677,2.5677,0,2.5656,2.5655,2.5656,2.5658,2.566,2.5661,2.5662,2.5664,2.5661,2.5664,2.5668,2.567,2.5674,2.5678,2.5682,2.5683,2.568,2.5679,2.5681,2.5681,2.5682,2.5682,2.566,2.5678,2.5678,2.5678,2.5678,2.5678,2.5666,2.5669,2.5669,2.5671,2.5672,2.5674,2.5676,2.5676,2.5679,2.5682,2.568,2.5685,2.5687,2.5691,2.5693,2.5697,2.5694,2.5697,2.5697,2.5698,2.5699,2.5682,2.5698,2.5698,2.5698,2.5698,2.5698,0,2.568,2.568,2.5682,2.5684,2.5686,2.5683,2.5685,2.5687,2.5691,2.5693,2.5696,2.5701,2.5705,2.5706,2.571,2.5713,2.5712,2.5715,2.5714,2.5715,2.5701,2.5699,2.5716,2.5716,2.5716,2.5716,2.5716,2.5716,2.5687,2.5691,2.5691,2.5696,2.5697,2.5701,2.5702,2.5704,2.5705,2.5711,2.5714,2.5715,2.5717,2.5721,2.5725,2.5726,2.5727,2.573,2.573,2.5717,2.5715,2.5714,2.5712,2.5731,2.5731,2.5743,2.5743,2.5743]},{"header":{"parameterUnit":"m.s-1","parameterCategory":1,"la1":30.2991,"la2":30.254,"lo1":-89.0895,"lo2":-89.0444,"dy":0.0017,"dx":0.0017,"nx":28,"ny":28,"refTime":"2023-08-10T21:00:00:Z","depth":0,"parameterNumber":3,"parameterNumberName":"V-component_of_WINDS"},"data":[0,0,0,0,0,0,0,0,0,0,0,0,0,0,0,0,0,0,0,0,0,0,0,0,0,0,0,0,0,0,0,0,0,0,0,0,0,0,0,0,0,0,0,0,0,0,0,0,0,0,0,0,0,0,0,0,0,0,3.2363,3.2364,0,3.2399,3.24,3.24,3.2431,3.2432,3.2432,3.2432,3.2466,3.2467,3.2467,0,0,0,0,0,0,0,0,0,0,0,0,0,3.2318,3.2319,3.2363,3.2364,3.2364,3.2399,3.24,3.24,3.2431,3.2432,3.2432,3.2432,3.2466,3.2467,3.2467,0,0,0,0,0,0,0,0,0,0,0,0,0,3.2344,3.2319,3.2363,3.2384,3.2386,3.2399,3.24,3.24,3.2431,3.2432,3.2432,3.2433,3.2466,3.2466,3.2467,3.2461,0,0,3.247,3.247,0,0,0,0,0,0,0,0,3.2343,3.2346,3.2381,3.2383,3.2385,3.2411,3.2396,3.2421,3.2431,3.2414,3.2432,3.2433,3.2447,3.245,3.2455,3.2463,3.2465,3.247,3.247,3.2471,3.2471,0,0,0,0,0,0,0,3.2341,3.2345,3.2378,3.2381,3.2384,3.239,3.2395,3.2401,3.2427,3.2416,3.2418,3.2422,3.2449,3.2454,3.2456,3.2465,3.247,3.2471,3.2471,3.2471,3.2468,3.2468,0,0,0,0,0,0,3.2336,3.2343,3.2376,3.2379,3.2365,3.2391,3.2396,3.2402,3.2427,3.2431,3.2421,3.2423,3.2452,3.2455,3.2457,3.2451,3.2471,3.2472,3.2472,3.2469,3.2468,3.2467,0,0,0,0,0,0,3.2335,3.2339,3.2375,3.2361,3.2366,3.2391,3.2398,3.2403,3.2408,3.2432,3.2436,3.2422,3.2453,3.2456,3.246,3.2453,3.2472,3.2473,3.2469,3.2469,3.2468,3.2439,0,0,0,0,0,0,3.2334,3.2339,3.2338,3.2361,3.2367,3.2378,3.2398,3.2403,3.241,3.2413,3.2434,3.2438,3.2454,3.2459,3.2461,3.2454,3.2473,3.247,3.2469,3.2468,3.244,3.2437,3.2434,0,0,0,0,0,3.2332,3.2328,3.2337,3.2341,3.2367,3.2378,3.2381,3.24,3.2409,3.2408,3.2422,3.2437,3.2453,3.2459,3.2462,3.2455,3.2471,3.2469,3.2468,3.2442,3.2437,3.2434,0,0,0,0,0,0,3.2302,3.2331,3.2342,3.2346,3.2359,3.2383,3.2382,3.2395,3.2406,3.2408,3.243,3.2435,3.2435,3.2446,3.2451,3.245,3.2464,3.2463,3.2443,3.2439,3.2436,3.2433,3.2474,0,0,0,0,0,3.2296,3.2303,3.2328,3.2329,3.2335,3.2357,3.2362,3.2376,3.239,3.2396,3.2411,3.2423,3.2431,3.2436,3.2444,3.2442,3.2446,3.2439,3.2436,3.2433,3.2431,3.2429,3.2426,3.2463,3.2463,3.2463,0,0,3.2283,3.23,3.2303,3.2323,3.2335,3.2341,3.2361,3.2367,3.2371,3.2397,3.2401,3.2412,3.2428,3.2428,3.2429,3.2436,3.2422,3.2431,3.2429,3.2429,3.2427,3.2424,3.2421,3.2462,3.2462,3.2462,0,0,3.2262,3.2277,3.2278,3.2289,3.2307,3.2322,3.2322,3.2344,3.2352,3.2357,3.2376,3.238,3.2394,3.2404,3.241,3.2392,3.2405,3.2394,3.2376,3.2374,3.2371,3.2369,3.236,3.2357,3.2393,3.2393,3.2393,0,3.2244,3.2254,3.2276,3.2281,3.2288,3.2312,3.2312,3.2322,3.2341,3.2345,3.2354,3.237,3.2382,3.2384,3.238,3.2385,3.2384,3.2391,3.237,3.2368,3.2366,3.2358,3.2355,3.2391,3.2391,3.2391,3.2392,0,3.223,3.2237,3.2235,3.2254,3.2261,3.2263,3.2284,3.2289,3.2301,3.2315,3.2318,3.2334,3.2345,3.2347,3.2359,3.235,3.2354,3.2366,3.238,3.236,3.2353,3.2351,3.2389,3.2389,3.239,3.239,0,0,3.2191,3.2221,3.222,3.2228,3.2249,3.2254,3.2257,3.2269,3.2271,3.2284,3.2285,3.2295,3.2306,3.2314,3.2328,3.2326,3.2308,3.2338,3.2338,3.233,3.2297,3.2286,3.2283,3.2317,3.2317,3.2316,3.2295,0,3.2173,3.218,3.2199,3.2199,3.2205,3.2227,3.2229,3.2241,3.2253,3.2259,3.2272,3.2278,3.2293,3.2298,3.2297,3.231,3.2301,3.2312,3.2317,3.2317,3.2311,3.2279,3.2269,3.2248,3.2292,3.2292,3.2292,0,3.2152,3.2163,3.2164,3.2184,3.2187,3.2188,3.22,3.2206,3.2219,3.2228,3.2236,3.2251,3.2253,3.2268,3.227,3.2277,3.2281,3.2287,3.2287,3.2287,3.2302,3.2277,3.2242,3.2238,3.2288,3.2288,3.2289,0,3.2122,3.2137,3.2139,3.2146,3.2169,3.2169,3.2178,3.2193,3.2198,3.2208,3.2211,3.2221,3.2226,3.2232,3.2249,3.2258,3.2249,3.2265,3.2255,3.2254,3.2251,3.225,3.2214,3.2255,3.2255,3.2255,3.2255,0,3.2099,3.2098,3.2126,3.2127,3.2126,3.2148,3.2146,3.2157,3.217,3.2172,3.2192,3.2194,3.2217,3.2221,3.2234,3.2233,3.2236,3.2242,3.2245,3.2239,3.2238,3.224,3.2242,3.2255,3.2255,3.2255,3.2255,0,3.2064,3.2083,3.2087,3.2108,3.2113,3.2112,3.2129,3.213,3.2144,3.2147,3.2149,3.2169,3.2175,3.2192,3.2202,3.2211,3.2205,3.2213,3.2201,3.2203,3.2191,3.2191,3.2153,3.2148,3.2194,3.2194,3.2193,0,3.2047,3.2047,3.2069,3.2072,3.2081,3.2086,3.2092,3.2112,3.2117,3.2132,3.2131,3.2138,3.2145,3.2153,3.2167,3.2175,3.2181,3.2168,3.2183,3.2176,3.2179,3.2178,3.2177,3.2164,3.2163,3.2163,3.2162,0,3.2015,3.2024,3.2032,3.2042,3.2048,3.2056,3.2066,3.2068,3.2091,3.2095,3.2101,3.2106,3.2116,3.2122,3.2132,3.2141,3.2154,3.2158,3.2155,3.2149,3.2141,3.2143,3.219,3.2158,3.2159,3.2159,3.2159,3.2159,3.1988,3.1988,3.2003,3.201,3.2019,3.2028,3.203,3.2043,3.2049,3.2059,3.207,3.2075,3.2087,3.2101,3.2109,3.2112,3.2119,3.2116,3.2115,3.2114,3.211,3.2142,3.2114,3.2114,3.2114,3.2114,3.2114,0,3.1955,3.1965,3.1972,3.1985,3.199,3.2004,3.2015,3.2018,3.2022,3.2032,3.2038,3.2045,3.2051,3.2066,3.2073,3.2072,3.2078,3.2073,3.2072,3.2074,3.2104,3.2104,3.2068,3.2068,3.2068,3.2068,3.2068,3.2068,3.1939,3.1939,3.1949,3.1954,3.1965,3.1969,3.1974,3.1981,3.199,3.1996,3.2001,3.2011,3.2023,3.2031,3.2037,3.2041,3.2042,3.2034,3.204,3.2068,3.2072,3.2076,3.2077,3.2034,3.2034,3.2009,3.2009,3.2009]}]]